Flag for Japan Weather past 2 weeks in Sapporo, Japan

Now
28 °F

Chilly.


Feels Like: 14 °F
Forecast: 28 / 30 °F
Wind: 23 mph from Northwest

Location: Sapporo

Current Time: Feb 2, 2015 at 8:05:18 AM

Latest Report: Feb 2, 2015 at 7:00 AM


Visibility: N/A

Pressure: 30.06 "Hg

Humidity: 72%

Dew point: 20 °F

Location of SapporoLocation

Historic Weather in Sapporo — Graph

°F

Sapporo temperature yesterday

Maximum temperature yesterday: 31 °F (at 5:00 PM)
Minimum temperature yesterday: 27 °F (at 7:00 PM)
Average temperature yesterday: 29 °F

Past Weeks' High & Low Weather Summary

 TemperatureHumidityPressure
High40 °F (Jan 27, 8:00 AM)93% (Jan 22, 7:00 PM)30.39 "Hg (Jan 22, 7:00 PM)
Low19 °F (Jan 18, 10:00 PM)33% (Jan 28, 10:00 AM)29.65 "Hg (Jan 23, 1:00 PM)
Average29 °F70%30.03 "Hg
* Reported Jan 18 7:00 AM — Feb 2 6:00 AM, Sapporo, Weather by CustomWeather, © 2014

Note: Actual official high and low records may vary slightly from our data, if they occured in-between our weather recording intervals... More about our weather records

Advertising

Sapporo weather history for previous 24 hours

 ConditionsComfort  
Time TempWeatherWind HumidityBarometerVisibility
6:00 AM
Feb 2
28 °FOvercast.20 mph77%30.05 "Hg6 mi
5:00 AM28 °FChilly.20 mph80%30.04 "HgN/A
4:00 AM29 °FChilly.18 mph58%30.04 "HgN/A
3:00 AM28 °FSnow flurries. Overcast.20 mph65%30.03 "Hg5 mi
2:00 AM29 °FChilly.20 mph70%30.04 "HgN/A
1:00 AM27 °FChilly.20 mph84%30.04 "HgN/A
12:00 AM29 °FChilly.22 mph73%30.03 "HgN/A
11:00 PM
Feb 1
28 °FChilly.22 mph86%30.02 "HgN/A
10:00 PM29 °FChilly.17 mph80%30.02 "HgN/A
9:00 PM27 °FSnow flurries. Overcast.15 mph91%30.02 "Hg2 mi
8:00 PM27 °FChilly.9 mph90%30.01 "HgN/A
7:00 PM27 °FChilly.16 mph91%30.01 "HgN/A
6:00 PM30 °FSnow flurries. Overcast.22 mph75%29.99 "Hg5 mi
5:00 PM31 °FChilly.18 mph67%29.97 "HgN/A
4:00 PM30 °FChilly.20 mph68%29.97 "HgN/A
3:00 PM30 °FSnow flurries. Overcast.26 mph74%29.96 "Hg2 mi
2:00 PM29 °FChilly.18 mph79%29.94 "HgN/A
1:00 PM28 °FChilly.21 mph88%29.95 "HgN/A
12:00 PM28 °FSnow flurries. Overcast.21 mph83%29.96 "Hg1 mi
11:00 AM30 °FChilly.16 mph75%29.96 "HgN/A
10:00 AM28 °FChilly.14 mph83%29.98 "HgN/A
9:00 AM30 °FPartly sunny.17 mph64%29.98 "Hg9 mi
8:00 AM29 °FChilly.14 mph58%29.98 "HgN/A
Weather by CustomWeather, © 2014

See weather overviewHow to use our weather pages